This is the latest recevied weather packets stored in our database for station/object KC3BAN-3. If no packets are shown the sender has not sent any weather packets the latest 1 day(s).
| Time | Temp. | Humidity | Pressure | Rain* | Wind** | Luminosity | Snow |
|---|---|---|---|---|---|---|---|
| 1778083542 | 23.89° C | 71% | 1015.9 hPa | 0 mm | - | - | - |
| 1778082514 | 23.89° C | 72% | 1016.2 hPa | 0 mm | - | - | - |
| 1778081604 | 24.44° C | 70% | 1015.9 hPa | 0 mm | - | - | - |
| 1778081427 | 24.44° C | 70% | 1016.2 hPa | 0 mm | - | - | - |
| 1778080689 | 24.44° C | 71% | 1016.1 hPa | 0 mm | - | - | - |
| 1778079196 | 23.89° C | 70% | 1016 hPa | 0 mm | - | - | - |
| 1778077515 | 23.89° C | 70% | 1015.9 hPa | 0 mm | - | - | - |
| 1778076187 | 23.33° C | 71% | 1016 hPa | 0 mm | - | - | - |
| 1778075276 | 23.33° C | 72% | 1015.9 hPa | 0 mm | - | - | - |
| 1778074666 | 23.33° C | 71% | 1016 hPa | 0 mm | - | - | - |
| 1778074358 | 23.33° C | 72% | 1016.2 hPa | 0 mm | - | - | - |
| 1778074187 | 23.33° C | 73% | 1016.4 hPa | 0 mm | - | - | - |
| 1778073457 | 22.78° C | 75% | 1016.1 hPa | 0 mm | - | - | - |
| 1778073157 | 22.78° C | 75% | 1016.2 hPa | 0 mm | - | - | - |
| 1778072385 | 22.22° C | 75% | 1016 hPa | 0 mm | - | - | - |
| 1778071956 | 22.22° C | 77% | 1016.2 hPa | 0 mm | - | - | - |
| 1778071657 | 22.22° C | 77% | 1016.2 hPa | 0 mm | - | - | - |
| 1778071484 | 21.67° C | 77% | 1016.3 hPa | 0 mm | - | - | - |
| 1778070758 | 21.67° C | 77% | 1016.5 hPa | 0 mm | - | - | - |
| 1778070458 | 21.67° C | 77% | 1016.5 hPa | 0 mm | - | - | - |
| 1778069558 | 21.67° C | 77% | 1016.4 hPa | 0 mm | - | - | - |
| 1778068656 | 21.11° C | 77% | 1016.2 hPa | 0 mm | - | - | - |
| 1778068056 | 20.56° C | 78% | 1016.3 hPa | 0 mm | - | - | - |
| 1778066856 | 20° C | 78% | 1016.4 hPa | 0 mm | - | - | - |
| 1778066256 | 19.44° C | 79% | 1016.3 hPa | 0 mm | - | - | - |
* Rain latest hour (hover to see other rain measurements)
** Current wind speed in m/s (hover to see current wind gust speed)